Regional Weather Roundup
Issued by NWS

Home | Current Version | Previous Version | Text Only | Print | Product List | Glossary Off
Versions: 1 2 3 4 5 6 7 8 9 10 11 12 13 14 15 16 17 18 19 20 21 22 23 24 25 26 27

000
ASUS45 KCYS 152010
RWRWY

WYOMING REGIONAL WEATHER ROUNDUP
NATIONAL WEATHER SERVICE CHEYENNE WY
200 PM MDT TUE APR 15 2014

NOTE:  "FAIR" INDICATES FEW OR NO CLOUDS BELOW 12,000 FEET
WITH NO SIGNIFICANT WEATHER AND/OR OBSTRUCTIONS TO VISIBILITY.

WYZ001-152100-
YELLOWSTONE NATIONAL PARK

CITY           SKY/WX    TMP DP  RH WIND       PRES   REMARKS
LK YELLOWSTONE   N/A     35  18  49 SW9G26    29.81F WCI  28
W YELLOWSTONE  NOT AVBL

$$
WYZ002>013-054>058-071-098>099-152100-
NORTHERN WYOMING

CITY           SKY/WX    TMP DP  RH WIND       PRES   REMARKS
JACKSON        CLOUDY    43  23  45 MISG      29.83
CODY           CLOUDY    54  23  30 E9G18     29.67F
GREYBULL       CLOUDY    50  29  44 N3        29.68F
WORLAND        CLOUDY    55  27  34 VRB6      29.66F
SHERIDAN       CLOUDY    60  25  26 NW15      29.63F
BUFFALO        PTSUNNY   58  18  21 E7        29.66F
GILLETTE       MOSUNNY   60  21  22 VRB6G20   29.63F
HULETT         FAIR      61  21  21 W13G25    29.63
NEWCASTLE      FAIR      54  27  35 SE9       29.69

$$
WYZ014>020-022>026-101>103-152100-
CENTRAL WYOMING

CITY           SKY/WX    TMP DP  RH WIND       PRES   REMARKS
BIG PINEY      MOSUNNY   54  10  17 W21G36    29.84F
PINEDALE       MOCLDY    48  19  32 NE6       29.82F
DUBOIS         CLOUDY    45  10  24 W26G44    29.76S
LANDER         MOSUNNY   59  20  22 SW15G22   29.72F
RIVERTON       MOSUNNY   61  11  14 SW13G26   29.70F
CASPER         MOSUNNY   58  19  22 SW28G36   29.73F
DOUGLAS        SUNNY     54  29  38 W16       29.74F

$$
WYZ021-027>030-104>119-152100-
SOUTHERN WYOMING

CITY           SKY/WX    TMP DP  RH WIND       PRES   REMARKS
EVANSTON       MOSUNNY   57  11  16 SW26G36   29.91F
KEMMERER       PTCLDY    52   9  17 W35       29.87F
FORT BRIDGER   FAIR      59  11  15 W32G45    29.90F
ROCK SPRINGS   MOSUNNY   59   6  12 W26G39    29.85
DIXON          FAIR      53  18  25 SW21G26   29.95F
RAWLINS        MOSUNNY   55  14  19 SW23G36   29.85F
SARATOGA       MOCLDY    50  18  27 SW18G28   29.90F
LARAMIE        PTSUNNY   46  20  35 SW17      29.85F
CHEYENNE       PTSUNNY   50  22  33 W26G35    29.82F
TORRINGTON     PTSUNNY   58  25  28 W24G31    29.74F
PINE BLUFFS    CLOUDY    52  25  35 SW14G22   29.82F

$$



USA.gov is the U.S. government's official web portal to all federal, state and local government web resources and services.